AXM1194 WMKK-WMKN

Flight info

Callsign AXM1194
Flight time 0h 49m
Altitude 25000
Route PIBOS1F PIBOS R208 GUNBO GUNBO1E
Aircraft A320/M-SDE3FGHIRWY/LB1

Departure

Time 2026-05-01 08:12
Airport Kuala Lumpur International Airport (WMKK)

Arrival

Time 2026-05-01 09:01
Airport Sultan Mahmud Airport (WMKN)
Time Latitude Longitude Altitude Speed Heading
2026-05-01 07:29 2.73812 101.68541 42 ft 0 kts 146°
2026-05-01 07:55 2.73852 101.68533 40 ft 4 kts 203°
2026-05-01 07:56 2.73878 101.68553 39 ft 0 kts 236°
2026-05-01 08:00 2.73830 101.68412 42 ft 10 kts 236°
2026-05-01 08:01 2.73696 101.68213 41 ft 10 kts 236°
2026-05-01 08:01 2.73631 101.68213 38 ft 11 kts 145°
2026-05-01 08:01 2.73560 101.68261 40 ft 13 kts 146°
2026-05-01 08:02 2.73389 101.68376 40 ft 16 kts 145°
2026-05-01 08:02 2.73291 101.68442 40 ft 18 kts 147°
2026-05-01 08:03 2.73112 101.68563 40 ft 13 kts 146°
2026-05-01 08:03 2.73034 101.68615 40 ft 14 kts 146°
2026-05-01 08:03 2.72849 101.68739 39 ft 17 kts 146°
2026-05-01 08:04 2.72638 101.68882 40 ft 19 kts 146°
2026-05-01 08:04 2.72426 101.69023 40 ft 18 kts 147°
2026-05-01 08:05 2.72194 101.69181 40 ft 22 kts 146°
2026-05-01 08:05 2.72061 101.69270 40 ft 24 kts 146°
2026-05-01 08:05 2.71965 101.69335 40 ft 15 kts 146°
2026-05-01 08:06 2.71830 101.69400 40 ft 8 kts 198°
2026-05-01 08:06 2.71748 101.69355 38 ft 9 kts 153°
2026-05-01 08:07 2.71594 101.69456 39 ft 14 kts 146°
2026-05-01 08:07 2.71445 101.69556 39 ft 12 kts 146°
2026-05-01 08:08 2.71381 101.69599 38 ft 10 kts 146°
2026-05-01 08:08 2.71261 101.69679 39 ft 13 kts 146°
2026-05-01 08:09 2.71125 101.69771 38 ft 10 kts 146°
2026-05-01 08:09 2.71066 101.69803 39 ft 9 kts 171°
2026-05-01 08:09 2.71018 101.69780 39 ft 8 kts 233°
2026-05-01 08:10 2.70968 101.69701 38 ft 6 kts 238°
2026-05-01 08:10 2.70986 101.69656 38 ft 0 kts 325°
2026-05-01 08:11 2.70996 101.69649 38 ft 13 kts 325°
2026-05-01 08:11 2.71993 101.68976 39 ft 148 kts 326°
2026-05-01 08:12 2.73932 101.67757 1178 ft 168 kts 329°
2026-05-01 08:12 2.74962 101.67105 1730 ft 185 kts 325°
2026-05-01 08:12 2.76591 101.64889 2487 ft 232 kts 276°
2026-05-01 08:13 2.76647 101.63200 3065 ft 252 kts 268°
2026-05-01 08:13 2.76571 101.61413 3769 ft 261 kts 266°
2026-05-01 08:13 2.75081 101.58157 5493 ft 267 kts 224°
2026-05-01 08:14 2.73523 101.57139 6430 ft 272 kts 201°
2026-05-01 08:14 2.71673 101.56829 7335 ft 278 kts 176°
2026-05-01 08:14 2.69813 101.57360 8227 ft 283 kts 150°
2026-05-01 08:14 2.68348 101.58719 9117 ft 289 kts 122°
2026-05-01 08:15 2.67676 101.60580 9945 ft 293 kts 95°
2026-05-01 08:15 2.68658 101.64710 10913 ft 328 kts 73°
2026-05-01 08:15 2.69235 101.66951 11607 ft 335 kts 72°
2026-05-01 08:16 2.70294 101.69033 12363 ft 340 kts 52°
2026-05-01 08:16 2.72058 101.70598 13111 ft 343 kts 28°
2026-05-01 08:16 2.74327 101.71291 13829 ft 345 kts
2026-05-01 08:16 2.76713 101.71032 14542 ft 347 kts 348°
2026-05-01 08:17 2.79123 101.70700 15248 ft 351 kts 356°
2026-05-01 08:17 2.81581 101.70787 15933 ft 356 kts
2026-05-01 08:17 2.84011 101.71306 16611 ft 359 kts 13°
2026-05-01 08:17 2.86450 101.71905 17282 ft 363 kts 13°
2026-05-01 08:18 2.88910 101.72530 17937 ft 366 kts 14°
2026-05-01 08:18 2.93888 101.73829 19169 ft 373 kts 17°
2026-05-01 08:19 2.98325 101.76582 20327 ft 381 kts 37°
2026-05-01 08:19 3.00422 101.78221 20896 ft 385 kts 38°
2026-05-01 08:19 3.02537 101.79883 21447 ft 388 kts 38°
2026-05-01 08:19 3.04665 101.81560 21979 ft 391 kts 38°
2026-05-01 08:20 3.06816 101.83252 22476 ft 395 kts 38°
2026-05-01 08:20 3.08990 101.84958 22971 ft 398 kts 38°
2026-05-01 08:20 3.11181 101.86672 23475 ft 401 kts 37°
2026-05-01 08:20 3.13391 101.88398 23954 ft 404 kts 37°
2026-05-01 08:21 3.15612 101.90132 24429 ft 407 kts 37°
2026-05-01 08:21 3.17849 101.91879 24863 ft 410 kts 37°
2026-05-01 08:21 3.20082 101.93622 24979 ft 415 kts 37°
2026-05-01 08:21 3.22422 101.95455 25017 ft 429 kts 38°
2026-05-01 08:22 3.24783 101.97305 25015 ft 443 kts 38°
2026-05-01 08:22 3.27269 101.99250 25015 ft 455 kts 38°
2026-05-01 08:22 3.29789 102.01221 25008 ft 463 kts 38°
2026-05-01 08:22 3.32336 102.03215 24996 ft 464 kts 38°
2026-05-01 08:23 3.34866 102.05147 25008 ft 463 kts 33°
2026-05-01 08:23 3.37664 102.06720 25018 ft 461 kts 26°
2026-05-01 08:23 3.40524 102.08185 25015 ft 461 kts 26°
2026-05-01 08:23 3.43377 102.09642 25003 ft 461 kts 26°
2026-05-01 08:24 3.46234 102.11100 25001 ft 461 kts 26°
2026-05-01 08:24 3.49088 102.12560 25008 ft 461 kts 26°
2026-05-01 08:24 3.51943 102.14024 25016 ft 461 kts 26°
2026-05-01 08:24 3.54799 102.15489 25003 ft 461 kts 26°
2026-05-01 08:25 3.57650 102.16953 25006 ft 460 kts 27°
2026-05-01 08:25 3.60492 102.18413 25000 ft 460 kts 27°
2026-05-01 08:25 3.63345 102.19880 25003 ft 461 kts 27°
2026-05-01 08:25 3.66198 102.21346 24994 ft 461 kts 27°
2026-05-01 08:26 3.69046 102.22809 24997 ft 461 kts 26°
2026-05-01 08:26 3.71905 102.24273 24996 ft 461 kts 26°
2026-05-01 08:26 3.74756 102.25735 25001 ft 461 kts 26°
2026-05-01 08:26 3.77616 102.27201 25002 ft 461 kts 26°
2026-05-01 08:27 3.80470 102.28665 24995 ft 461 kts 26°
2026-05-01 08:27 3.83326 102.30128 25001 ft 461 kts 26°
2026-05-01 08:27 3.86177 102.31584 24997 ft 456 kts 26°
2026-05-01 08:27 3.88939 102.32995 25002 ft 435 kts 26°
2026-05-01 08:28 3.91535 102.34325 25002 ft 415 kts 26°
2026-05-01 08:28 3.94042 102.35614 25016 ft 396 kts 26°
2026-05-01 08:28 3.96456 102.36854 25017 ft 387 kts 26°
2026-05-01 08:28 3.98872 102.38095 25016 ft 384 kts 26°
2026-05-01 08:29 4.01213 102.39297 24911 ft 380 kts 26°
2026-05-01 08:29 4.03538 102.40489 24661 ft 372 kts 26°
2026-05-01 08:29 4.05824 102.41660 24411 ft 367 kts 26°
2026-05-01 08:29 4.08092 102.42819 24164 ft 365 kts 26°
2026-05-01 08:30 4.10356 102.43979 23911 ft 364 kts 26°
2026-05-01 08:30 4.12604 102.45132 23660 ft 362 kts 26°
2026-05-01 08:30 4.14842 102.46282 23409 ft 361 kts 26°
2026-05-01 08:30 4.17075 102.47429 23159 ft 359 kts 26°
2026-05-01 08:31 4.19296 102.48569 22903 ft 358 kts 26°
2026-05-01 08:31 4.21511 102.49706 22672 ft 357 kts 26°
2026-05-01 08:31 4.23713 102.50837 22410 ft 356 kts 26°
2026-05-01 08:31 4.25914 102.51968 22157 ft 354 kts 26°
2026-05-01 08:32 4.28102 102.53091 21908 ft 353 kts 26°
2026-05-01 08:32 4.30282 102.54211 21657 ft 352 kts 26°
2026-05-01 08:32 4.32448 102.55323 21347 ft 348 kts 26°
2026-05-01 08:32 4.34595 102.56428 20910 ft 346 kts 26°
2026-05-01 08:33 4.36727 102.57525 20477 ft 345 kts 26°
2026-05-01 08:33 4.38860 102.58621 20043 ft 343 kts 26°
2026-05-01 08:33 4.40980 102.59710 19619 ft 342 kts 26°
2026-05-01 08:33 4.43094 102.60794 19185 ft 341 kts 26°
2026-05-01 08:34 4.45204 102.61875 18756 ft 340 kts 26°
2026-05-01 08:34 4.47302 102.62951 18325 ft 339 kts 26°
2026-05-01 08:34 4.49396 102.64028 17906 ft 337 kts 26°
2026-05-01 08:34 4.51452 102.65088 17498 ft 336 kts 26°
2026-05-01 08:35 4.53530 102.66158 17091 ft 335 kts 26°
2026-05-01 08:35 4.55627 102.67238 16676 ft 334 kts 26°
2026-05-01 08:35 4.57698 102.68300 16265 ft 333 kts 26°
2026-05-01 08:35 4.59730 102.69342 15867 ft 332 kts 26°
2026-05-01 08:36 4.61792 102.70399 15467 ft 331 kts 26°
2026-05-01 08:36 4.63841 102.71450 15070 ft 330 kts 26°
2026-05-01 08:36 4.65884 102.72503 14672 ft 329 kts 26°
2026-05-01 08:36 4.67917 102.73550 14275 ft 328 kts 26°
2026-05-01 08:37 4.69947 102.74594 13878 ft 327 kts 26°
2026-05-01 08:37 4.71964 102.75632 13481 ft 326 kts 26°
2026-05-01 08:37 4.73983 102.76671 13073 ft 325 kts 26°
2026-05-01 08:37 4.75988 102.77699 12673 ft 323 kts 26°
2026-05-01 08:38 4.77986 102.78727 12277 ft 322 kts 26°
2026-05-01 08:38 4.79976 102.79752 11865 ft 321 kts 26°
2026-05-01 08:38 4.81961 102.80774 11456 ft 320 kts 26°
2026-05-01 08:38 4.83934 102.81788 11043 ft 319 kts 26°
2026-05-01 08:39 4.85908 102.82801 10619 ft 317 kts 25°
2026-05-01 08:39 4.87942 102.83534 10468 ft 306 kts 13°
2026-05-01 08:39 4.89979 102.84041 10189 ft 296 kts 13°
2026-05-01 08:39 4.91295 102.84372 9767 ft 294 kts 13°
2026-05-01 08:40 4.95207 102.85373 8709 ft 287 kts 13°
2026-05-01 08:40 4.97143 102.85869 8289 ft 287 kts 13°
2026-05-01 08:40 4.99080 102.86364 7857 ft 288 kts 13°
2026-05-01 08:41 5.01007 102.86853 7475 ft 286 kts 13°
2026-05-01 08:41 5.02924 102.87340 7104 ft 283 kts 13°
2026-05-01 08:41 5.04833 102.87826 6737 ft 281 kts 13°
2026-05-01 08:41 5.06701 102.88302 6427 ft 269 kts 13°
2026-05-01 08:42 5.08486 102.88746 5873 ft 263 kts 12°
2026-05-01 08:42 5.10275 102.89119 5290 ft 260 kts 10°
2026-05-01 08:42 5.12023 102.89449 4836 ft 252 kts
2026-05-01 08:42 5.13719 102.89762 4419 ft 244 kts
2026-05-01 08:43 5.15344 102.90063 4213 ft 228 kts
2026-05-01 08:43 5.16837 102.90350 4149 ft 210 kts 13°
2026-05-01 08:43 5.18169 102.90884 4072 ft 206 kts 32°
2026-05-01 08:43 5.19294 102.91768 3982 ft 205 kts 41°
2026-05-01 08:44 5.20318 102.92735 3896 ft 201 kts 43°
2026-05-01 08:44 5.21331 102.93724 3810 ft 204 kts 44°
2026-05-01 08:44 5.22346 102.94720 3714 ft 203 kts 43°
2026-05-01 08:44 5.23344 102.95698 3632 ft 200 kts 43°
2026-05-01 08:45 5.24330 102.96665 3461 ft 196 kts 43°
2026-05-01 08:45 5.25288 102.97604 3199 ft 188 kts 43°
2026-05-01 08:45 5.26194 102.98492 2947 ft 177 kts 43°
2026-05-01 08:45 5.27050 102.99332 2744 ft 166 kts 44°
2026-05-01 08:46 5.27856 103.00122 2510 ft 158 kts 43°
2026-05-01 08:46 5.28629 103.00880 2314 ft 153 kts 43°
2026-05-01 08:46 5.29383 103.01619 2112 ft 151 kts 43°
2026-05-01 08:46 5.30132 103.02353 1901 ft 150 kts 43°
2026-05-01 08:47 5.30875 103.03082 1716 ft 149 kts 43°
2026-05-01 08:47 5.31616 103.03808 1518 ft 149 kts 43°
2026-05-01 08:47 5.32357 103.04535 1322 ft 148 kts 43°
2026-05-01 08:47 5.33084 103.05248 1119 ft 148 kts 43°
2026-05-01 08:48 5.33819 103.05969 932 ft 147 kts 43°
2026-05-01 08:48 5.34549 103.06685 735 ft 147 kts 43°
2026-05-01 08:48 5.35277 103.07402 544 ft 147 kts 44°
2026-05-01 08:48 5.36005 103.08116 350 ft 146 kts 43°
2026-05-01 08:49 5.36729 103.08823 162 ft 144 kts 43°
2026-05-01 08:49 5.37497 103.09585 567 ft 166 kts 44°
2026-05-01 08:49 5.38362 103.10441 1381 ft 183 kts 43°
2026-05-01 08:49 5.39236 103.11465 2203 ft 195 kts 50°
2026-05-01 08:50 5.40140 103.12450 3047 ft 191 kts 47°
2026-05-01 08:50 5.40774 103.13616 3716 ft 195 kts 78°
2026-05-01 08:50 5.40670 103.14958 4360 ft 196 kts 113°
2026-05-01 08:50 5.39839 103.16035 4902 ft 201 kts 146°
2026-05-01 08:51 5.38545 103.16462 5001 ft 195 kts 182°
2026-05-01 08:51 5.37266 103.16094 5008 ft 192 kts 215°
2026-05-01 08:51 5.36173 103.15248 5015 ft 208 kts 219°
2026-05-01 08:51 5.35021 103.14336 5018 ft 213 kts 219°
2026-05-01 08:52 5.33815 103.13386 5025 ft 237 kts 219°
2026-05-01 08:52 5.32458 103.12320 5018 ft 252 kts 219°
2026-05-01 08:52 5.31080 103.11243 5012 ft 255 kts 218°
2026-05-01 08:52 5.29679 103.10148 5016 ft 256 kts 218°
2026-05-01 08:53 5.28276 103.09052 5012 ft 256 kts 218°
2026-05-01 08:53 5.26874 103.07960 5015 ft 256 kts 218°
2026-05-01 08:53 5.25464 103.06864 5015 ft 256 kts 218°
2026-05-01 08:53 5.24056 103.05772 5018 ft 256 kts 218°
2026-05-01 08:54 5.22686 103.04639 5008 ft 255 kts 227°
2026-05-01 08:54 5.21766 103.03154 4703 ft 250 kts 252°
2026-05-01 08:54 5.21304 103.01517 4567 ft 239 kts 255°
2026-05-01 08:54 5.20860 102.99948 4438 ft 228 kts 254°
2026-05-01 08:55 5.20432 102.98457 4305 ft 218 kts 254°
2026-05-01 08:55 5.20258 102.96986 3984 ft 211 kts 284°
2026-05-01 08:55 5.21042 102.95811 3793 ft 201 kts 327°
2026-05-01 08:55 5.22328 102.95436 3767 ft 190 kts
2026-05-01 08:56 5.23501 102.95867 3622 ft 177 kts 39°
2026-05-01 08:56 5.24372 102.96699 3437 ft 169 kts 44°
2026-05-01 08:56 5.25192 102.97507 3214 ft 163 kts 44°
2026-05-01 08:56 5.25987 102.98289 3037 ft 158 kts 44°
2026-05-01 08:57 5.26761 102.99048 2818 ft 153 kts 43°
2026-05-01 08:57 5.27517 102.99789 2616 ft 151 kts 43°
2026-05-01 08:57 5.28271 103.00528 2412 ft 150 kts 43°
2026-05-01 08:57 5.29005 103.01248 2214 ft 150 kts 43°
2026-05-01 08:58 5.29761 103.01990 2009 ft 149 kts 43°
2026-05-01 08:58 5.30503 103.02717 1818 ft 149 kts 43°
2026-05-01 08:58 5.31243 103.03442 1618 ft 149 kts 44°
2026-05-01 08:58 5.31983 103.04168 1423 ft 148 kts 43°
2026-05-01 08:59 5.32718 103.04890 1227 ft 148 kts 43°
2026-05-01 08:59 5.33449 103.05607 1033 ft 147 kts 44°
2026-05-01 08:59 5.34179 103.06325 868 ft 147 kts 43°
2026-05-01 08:59 5.34909 103.07040 634 ft 147 kts 44°
2026-05-01 09:00 5.35632 103.07750 473 ft 146 kts 44°
2026-05-01 09:00 5.36363 103.08458 269 ft 146 kts 44°
2026-05-01 09:00 5.37079 103.09166 108 ft 144 kts 44°
2026-05-01 09:00 5.37758 103.09834 53 ft 128 kts 44°
2026-05-01 09:01 5.38301 103.10366 54 ft 86 kts 45°
2026-05-01 09:01 5.38605 103.10664 55 ft 38 kts 43°
2026-05-01 09:01 5.38685 103.10739 54 ft 6 kts 81°
2026-05-01 09:01 5.38662 103.10732 53 ft 6 kts 231°
2026-05-01 09:02 5.38614 103.10674 55 ft 12 kts 226°
2026-05-01 09:02 5.38553 103.10614 55 ft 12 kts 224°
2026-05-01 09:02 5.38490 103.10553 52 ft 13 kts 224°
2026-05-01 09:02 5.38424 103.10487 54 ft 14 kts 225°
2026-05-01 09:03 5.38354 103.10418 54 ft 14 kts 224°
2026-05-01 09:03 5.38291 103.10357 53 ft 12 kts 224°
2026-05-01 09:03 5.38243 103.10319 53 ft 8 kts 202°
2026-05-01 09:03 5.38188 103.10336 53 ft 9 kts 138°
2026-05-01 09:04 5.38147 103.10374 53 ft 7 kts 137°
2026-05-01 09:04 5.38112 103.10400 54 ft 6 kts 161°
2026-05-01 09:04 5.38080 103.10414 54 ft 4 kts 141°
2026-05-01 09:04 5.38061 103.10434 54 ft 3 kts 135°
2026-05-01 09:05 5.38042 103.10452 52 ft 3 kts 135°
2026-05-01 09:05 5.38028 103.10468 54 ft 3 kts 134°
2026-05-01 09:05 5.38019 103.10476 54 ft 0 kts 134°